User: anonymous   Login
Location: *
(37.5724°S, 58.0067°E)
Time: 16:32:19
(UTC+00:00)
Language:

FENGYUN 1C DEB - Orbit

View from above orbital plane
View from above orbital plane
View from above satellite
View from above satellite

Ground track
Ground track

The orbit data is extracted from the following two-line orbital elements,

1 30153U 99025TJ  21106.07815632  .00000120  00000-0  15687-3 0  9992
2 30153 100.4663 272.3743 0208664 350.0237 129.9165 13.74318672713846
Epoch (UTC): 16 April 2021 01:52:32
Eccentricity: 0.0208664
inclination: 100.4663°
perigee height: 830 km
apogee height: 1138 km
right ascension of ascending node: 272.3743°
argument of perigee: 350.0237°
revolutions per day: 13.74318672
mean anomaly at epoch: 129.9165°
orbit number at epoch: 71384

The dashed part of the orbit path shows where the satellite is in the earth's shadow,  

DLR